Windom, MN

7:55 AM CDT on April 29, 2017 (GMT -0500)
Windom Municipal

Weather History for KMWM - June, 2013

Change the Weather History Date:

Monday, June 24, 2013

  Actual Average Record
Temperature  
Mean Temperature 68 °F -  
Max Temperature 75 °F 81 °F 94 °F (1954)
Min Temperature 62 °F 58 °F 47 °F (1955)
Cooling Degree Days 4    
Growing Degree Days 18 (Base 50)    
Moisture  
Dew Point 64 °F    
Average Humidity 83    
Maximum Humidity 100    
Minimum Humidity 69    
Precipitation  
Precipitation 0.00 in - - ()
Sea Level Pressure  
Sea Level Pressure 29.87 in    
Wind  
Wind Speed 3 mph (SE)    
Max Wind Speed 13 mph    
Max Gust Speed 18 mph    
Visibility 9 miles    
Events Rain , Thunderstorm    
Averages and records for this station are not official NWS values.
T = Trace of Precipitation, MM = Missing Value Source: NWS Daily Summary

Daily Weather History Graph

Daily Weather History Graph

Search for Another Location

Airport or City:

Trip Planner

Search our weather history database for the weather conditions in past years. The results will help you decide how hot, cold, wet, or windy it might be!

Date:

Astronomy

Jun. 24, 2013 Rise Set
Actual Time 5:38 AM CDT 9:07 PM CDT
Civil Twilight 5:02 AM CDT 9:43 PM CDT
Nautical Twilight 4:14 AM CDT 10:30 PM CDT
Astronomical Twilight 3:14 AM CDT 11:31 PM CDT
Moon 10:04 PM CDT (6/24) 7:11 AM CDT (6/24)
Length of Visible Light 16h 40m
Length of Day
15h 28m
Full, 98% of the Moon is Illuminated
Jun 24
Full
Jun 29
Last Quarter
Jul 8
New
Jul 15
First Quarter
Jul 22
Full

Hourly Weather History & Observations

Time (CDT) Temp. Dew Point Humidity Pressure Visibility Wind Dir Wind Speed Gust Speed Precip Events Conditions
12:13 AM 66.2 °F 62.6 °F 88% 29.93 in 10.0 mi Calm Calm - N/A   Clear
12:32 AM 66.2 °F 64.4 °F 94% 29.94 in 10.0 mi Calm Calm - N/A   Clear
12:52 AM 66.2 °F 64.4 °F 94% 29.93 in 10.0 mi Calm Calm - N/A   Clear
1:13 AM 64.4 °F 62.6 °F 94% 29.93 in 10.0 mi Calm Calm - N/A   Clear
1:32 AM 64.4 °F 62.6 °F 94% 29.94 in 1.0 mi Calm Calm - N/A   Mist
1:52 AM 64.4 °F 62.6 °F 94% 29.93 in 4.0 mi Calm Calm - N/A   Clear
2:13 AM 64.4 °F 62.6 °F 94% 29.92 in 10.0 mi Calm Calm - N/A   Clear
2:32 AM 64.4 °F 62.6 °F 94% 29.92 in 10.0 mi Calm Calm - N/A   Clear
2:52 AM 64.4 °F 62.6 °F 94% 29.91 in 10.0 mi Calm Calm - N/A   Clear
3:13 AM 64.4 °F 62.6 °F 94% 29.91 in 0.8 mi Calm Calm - N/A   Mist
3:32 AM 64.4 °F 62.6 °F 94% 29.91 in 10.0 mi Calm Calm - N/A   Clear
3:52 AM 64.4 °F 62.6 °F 94% 29.91 in 10.0 mi Calm Calm - N/A   Clear
4:12 AM 64.4 °F 62.6 °F 94% 29.91 in 10.0 mi Calm Calm - N/A   Clear
4:32 AM 62.6 °F 62.6 °F 100% 29.91 in 7.0 mi Calm Calm - N/A   Clear
4:53 AM 62.6 °F 60.8 °F 94% 29.92 in 2.5 mi Calm Calm - N/A   Clear
5:12 AM 62.6 °F 60.8 °F 94% 29.91 in 1.2 mi Calm Calm - N/A   Mist
5:32 AM 62.6 °F 60.8 °F 94% 29.91 in 5.0 mi Calm Calm - N/A   Clear
5:53 AM 62.6 °F 60.8 °F 94% 29.92 in 10.0 mi Calm Calm - N/A   Clear
6:12 AM 64.4 °F 62.6 °F 94% 29.92 in 7.0 mi Calm Calm - N/A   Clear
6:33 AM 62.6 °F 60.8 °F 94% 29.91 in 7.0 mi Calm Calm - N/A   Clear
6:53 AM 64.4 °F 62.6 °F 94% 29.90 in 7.0 mi Calm Calm - N/A   Clear
7:12 AM 66.2 °F 64.4 °F 94% 29.89 in 10.0 mi Calm Calm - N/A   Clear
7:33 AM 69.8 °F 64.4 °F 83% 29.88 in 10.0 mi Calm Calm - N/A   Clear
7:53 AM 71.6 °F 66.2 °F 83% 29.89 in 10.0 mi Calm Calm - N/A   Scattered Clouds
8:12 AM 73.4 °F 64.4 °F 73% 29.90 in 10.0 mi Calm Calm - N/A   Mostly Cloudy
8:33 AM 73.4 °F 64.4 °F 73% 29.91 in 10.0 mi Calm Calm - N/A   Mostly Cloudy
8:53 AM 73.4 °F 66.2 °F 78% 29.92 in 10.0 mi SE 3.5 mph - N/A   Mostly Cloudy
9:12 AM 73.4 °F 66.2 °F 78% 29.91 in 10.0 mi Calm Calm - N/A   Scattered Clouds
9:33 AM 73.4 °F 66.2 °F 78% 29.90 in 10.0 mi Calm Calm - N/A   Mostly Cloudy
9:52 AM 73.4 °F 66.2 °F 78% 29.91 in 10.0 mi SE 6.9 mph - N/A Thunderstorm Overcast
10:13 AM 73.4 °F 66.2 °F 78% 29.91 in 10.0 mi SSE 6.9 mph - N/A   Overcast
10:33 AM 73.4 °F 66.2 °F 78% 29.91 in 7.0 mi SSE 6.9 mph - N/A Rain Light Rain
10:52 AM 71.6 °F 68.0 °F 88% 29.90 in 7.0 mi SE 8.1 mph - N/A Rain , Thunderstorm Light Thunderstorms and Rain
11:13 AM 71.6 °F 68.0 °F 88% 29.90 in 7.0 mi Calm Calm - N/A   Light Drizzle
11:32 AM 66.2 °F 62.6 °F 88% 29.87 in 10.0 mi NNW 10.4 mph - N/A Rain , Thunderstorm Light Thunderstorms and Rain
11:52 AM 69.8 °F 64.4 °F 83% 29.85 in 10.0 mi Calm Calm - N/A Thunderstorm Overcast
12:12 PM 71.6 °F 64.4 °F 78% 29.84 in 10.0 mi NNE 10.4 mph - N/A   Scattered Clouds
12:32 PM 75.2 °F 66.2 °F 73% 29.81 in 10.0 mi North 9.2 mph - N/A   Clear
12:53 PM 75.2 °F 66.2 °F 73% 29.83 in 10.0 mi NE 8.1 mph - N/A   Clear
1:12 PM 75.2 °F 66.2 °F 73% 29.84 in 10.0 mi ENE 11.5 mph 17.3 mph N/A   Clear
1:32 PM 75.2 °F 66.2 °F 73% 29.87 in 10.0 mi ESE 12.7 mph - N/A   Scattered Clouds
1:53 PM 73.4 °F 66.2 °F 78% 29.84 in 10.0 mi East 9.2 mph - N/A   Mostly Cloudy
2:12 PM 75.2 °F 66.2 °F 73% 29.84 in 10.0 mi SE 8.1 mph 17.3 mph N/A   Scattered Clouds
2:32 PM 75.2 °F 66.2 °F 73% 29.84 in 10.0 mi SE 9.2 mph - N/A   Clear
2:52 PM 73.4 °F 66.2 °F 78% 29.84 in 10.0 mi SE 9.2 mph - N/A   Clear
3:12 PM 75.2 °F 66.2 °F 73% 29.84 in 10.0 mi SE 9.2 mph - N/A   Clear
3:32 PM 75.2 °F 66.2 °F 73% 29.85 in 10.0 mi SE 8.1 mph - N/A   Clear
3:52 PM 75.2 °F 64.4 °F 69% 29.85 in 10.0 mi SE 9.2 mph - N/A   Clear
4:13 PM 73.4 °F 64.4 °F 73% 29.84 in 10.0 mi ESE 6.9 mph - N/A   Clear
4:32 PM 73.4 °F 62.6 °F 69% 29.84 in 10.0 mi SE 9.2 mph - N/A   Clear
4:52 PM 71.6 °F 64.4 °F 78% 29.83 in 10.0 mi SE 6.9 mph - N/A Rain Light Rain
5:13 PM 71.6 °F 64.4 °F 78% 29.83 in 10.0 mi SE 5.8 mph - N/A   Light Drizzle
5:32 PM 71.6 °F 64.4 °F 78% 29.82 in 10.0 mi SE 6.9 mph - N/A Rain Light Rain
5:52 PM 73.4 °F 66.2 °F 78% 29.82 in 10.0 mi Calm Calm - N/A   Clear
6:13 PM 75.2 °F 66.2 °F 73% 29.82 in 10.0 mi SE 5.8 mph - N/A   Clear
6:32 PM 75.2 °F 64.4 °F 69% 29.82 in 10.0 mi SSE 12.7 mph 18.4 mph N/A   Scattered Clouds
6:52 PM 73.4 °F 66.2 °F 78% 29.82 in 10.0 mi ESE 11.5 mph - N/A   Light Drizzle
7:13 PM 71.6 °F 64.4 °F 78% 29.82 in 10.0 mi ESE 10.4 mph 17.3 mph N/A   Scattered Clouds
7:32 PM 71.6 °F 64.4 °F 78% 29.81 in 10.0 mi SE 8.1 mph - N/A   Mostly Cloudy
7:52 PM 73.4 °F 66.2 °F 78% 29.81 in 10.0 mi SSE 6.9 mph - N/A   Mostly Cloudy
8:13 PM 73.4 °F 64.4 °F 73% 29.81 in 10.0 mi SSE 9.2 mph - N/A   Scattered Clouds
8:32 PM 71.6 °F 64.4 °F 78% 29.81 in 10.0 mi SSE 4.6 mph - N/A   Clear
8:52 PM 71.6 °F 64.4 °F 78% 29.81 in 10.0 mi Calm Calm - N/A   Clear
9:13 PM 69.8 °F 64.4 °F 83% 29.81 in 10.0 mi Calm Calm - N/A   Clear
9:32 PM 69.8 °F 64.4 °F 83% 29.80 in 10.0 mi Calm Calm - N/A   Clear
9:52 PM 69.8 °F 64.4 °F 83% 29.81 in 10.0 mi Calm Calm - N/A   Clear
10:13 PM 69.8 °F 64.4 °F 83% 29.81 in 10.0 mi Calm Calm - N/A   Clear
10:32 PM 69.8 °F 64.4 °F 83% 29.81 in 10.0 mi SSE 5.8 mph - N/A   Clear
10:52 PM 69.8 °F 64.4 °F 83% 29.82 in 10.0 mi SE 3.5 mph - N/A   Clear
11:13 PM 69.8 °F 64.4 °F 83% 29.82 in 10.0 mi SSE 6.9 mph - N/A   Scattered Clouds
11:32 PM 69.8 °F 66.2 °F 88% 29.82 in 10.0 mi SSE 6.9 mph - N/A   Overcast
11:52 PM 69.8 °F 66.2 °F 88% 29.81 in 10.0 mi SSE 5.8 mph - N/A   Mostly Cloudy